EW9273 Weather Reports


time (UTC)temp
C
wind
direction
speed
KPH
gust
KPH
rain 1hr
cm
rain 24hr
cm
rain mn
cm
humidity
%
barometer
mb
20260507021047 18 49 6.4 25.7 0.00 0.00 0.00 74 1009.8
20260507020546 18 30 8.0 25.7 0.00 0.00 0.00 74 1009.8
20260507020046 18 29 8.0 19.3 0.00 0.00 0.00 74 1009.7
20260507015544 18 344 9.7 22.5 0.00 0.00 0.00 73 1009.8
20260507015045 18 5 8.0 25.7 0.00 0.00 0.00 73 1009.3
20260507014550 18 65 14.5 25.7 0.00 0.00 0.00 73 1009.3
20260507014044 18 57 8.0 20.9 0.00 0.00 0.00 73 1009.3
20260507013542 19 326 11.3 20.9 0.00 0.00 0.00 73 1009.3
20260507013049 19 337 8.0 20.9 0.00 0.00 0.00 73 1009.1
20260507012539 19 5 6.4 24.1 0.00 0.00 0.00 73 1009.1
20260507012039 19 342 4.8 20.9 0.00 0.00 0.00 72 1009.1
20260507011537 19 60 9.7 20.9 0.00 0.00 0.00 72 1009.1
20260507011036 19 290 8.0 17.7 0.00 0.00 0.00 72 1008.9
20260507010535 19 327 3.2 19.3 0.00 0.00 0.00 72 1008.8
20260507010045 20 346 8.0 19.3 0.00 0.00 0.00 72 1008.9
20260507005535 20 335 8.0 24.1 0.00 0.00 0.00 71 1008.6
20260507005031 20 5 11.3 24.1 0.00 0.00 0.00 71 1008.4
20260507004530 20 350 8.0 20.9 0.00 0.00 0.00 71 1008.4
20260507004029 20 306 8.0 19.3 0.00 0.00 0.00 70 1008.2
20260507003527 21 40 8.0 19.3 0.00 0.00 0.00 70 1008.3
20260507003026 21 24 6.4 20.9 0.00 0.00 0.00 69 1008.3
20260507002527 21 341 8.0 20.9 0.00 0.00 0.00 69 1008.3
20260507002024 21 319 8.0 20.9 0.00 0.00 0.00 68 1008.2
20260507001528 22 321 8.0 20.9 0.00 0.00 0.00 68 1008.2
20260507001023 22 319 8.0 20.9 0.00 0.00 0.00 68 1008.0
20260507000520 22 360 8.0 17.7 0.00 0.00 0.00 68 1007.9
20260507000019 22 75 6.4 17.7 0.00 0.00 0.00 68 1007.5
20260506235518 22 346 8.0 19.3 0.00 0.00 0.00 67 1007.6
20260506235016 23 145 8.0 19.3 0.00 0.00 0.00 68 1007.5
20260506234522 23 333 6.4 24.1 0.00 0.00 0.00 67 1007.5
20260506234015 23 343 8.0 24.1 0.00 0.00 0.00 67 1007.5
20260506233514 23 330 8.0 22.5 0.00 0.00 0.00 66 1007.3
20260506233014 23 69 8.0 22.5 0.00 0.00 0.00 66 1007.3
20260506232513 24 355 8.0 35.4 0.00 0.00 0.00 66 1007.2
20260506232013 24 331 12.9 35.4 0.00 0.00 0.00 66 1007.2
20260506231512 24 339 8.0 22.5 0.00 0.00 0.00 66 1007.1
20260506231013 25 338 9.7 22.5 0.00 0.00 0.00 65 1007.0
20260506230511 25 59 9.7 22.5 0.00 0.00 0.00 66 1007.0
20260506230011 25 346 9.7 29.0 0.00 0.00 0.00 66 1007.0
20260506225511 25 355 11.3 29.0 0.00 0.00 0.00 66 1006.9
20260506225011 26 14 9.7 24.1 0.00 0.00 0.00 65 1006.8
20260506224511 26 331 6.4 24.1 0.00 0.00 0.00 65 1006.5
20260506224009 26 338 8.0 22.5 0.00 0.00 0.00 65 1006.5
20260506223509 26 328 6.4 25.7 0.00 0.00 0.00 66 1006.3
20260506223010 26 355 11.3 25.7 0.00 0.00 0.00 66 1006.2
20260506222509 26 55 6.4 24.1 0.00 0.00 0.00 67 1006.1
20260506222011 26 22 11.3 24.1 0.00 0.00 0.00 67 1006.1
20260506221508 26 20 9.7 22.5 0.00 0.00 0.00 68 1006.0
20260506221008 26 18 8.0 19.3 0.00 0.00 0.00 68 1006.2
20260506220508 26 355 4.8 22.5 0.00 0.00 0.00 68 1006.2
20260506220015 26 9 9.7 22.5 0.00 0.00 0.00 68 1006.0
20260506215509 27 340 11.3 20.9 0.00 0.00 0.00 67 1006.1
20260506215007 27 360 6.4 20.9 0.00 0.00 0.00 67 1006.1
20260506214509 28 326 8.0 19.3 0.00 0.00 0.00 67 1006.2
20260506214007 28 342 8.0 16.1 0.00 0.00 0.00 68 1006.1
20260506213506 28 86 8.0 17.7 0.00 0.00 0.00 68 1006.0
20260506213008 28 117 9.7 17.7 0.00 0.00 0.00 68 1005.9
20260506212506 28 138 8.0 17.7 0.00 0.00 0.00 68 1005.8
20260506212007 29 78 6.4 17.7 0.00 0.00 0.00 67 1005.9
20260506211509 29 82 6.4 14.5 0.00 0.00 0.00 66 1005.9
20260506211006 30 101 6.4 16.1 0.00 0.00 0.00 65 1005.9
20260506210508 30 96 8.0 16.1 0.00 0.00 0.00 65 1006.0
20260506210011 30 86 4.8 14.5 0.00 0.00 0.00 65 1006.1
20260506205505 30 26 6.4 14.5 0.00 0.00 0.00 64 1006.0
20260506205010 31 49 3.2 12.9 0.00 0.00 0.00 62 1005.9
20260506204506 30 67 0.0 16.1 0.00 0.00 0.00 66 1006.0
20260506204005 30 105 6.4 16.1 0.00 0.00 0.00 65 1006.2
20260506203504 30 117 3.2 12.9 0.00 0.00 0.00 65 1006.3
20260506203003 30 83 3.2 12.9 0.00 0.00 0.00 64 1006.3
20260506202506 30 24 0.0 8.0 0.00 0.00 0.00 63 1006.4
20260506202003 30 30 1.6 9.7 0.00 0.00 0.00 63 1006.5
20260506201502 30 30 0.0 8.0 0.00 0.00 0.00 64 1006.6
20260506201004 30 321 1.6 8.0 0.00 0.00 0.00 66 1006.5
20260506200501 29 42 3.2 8.0 0.00 0.00 0.00 66 1006.5
20260506200004 29 75 1.6 9.7 0.00 0.00 0.00 66 1006.4
20260506195501 30 70 4.8 9.7 0.00 0.00 0.00 65 1006.4
20260506195002 30 86 3.2 9.7 0.00 0.00 0.00 66 1006.5
20260506194503 30 17 1.6 6.4 0.00 0.00 0.00 65 1006.5
20260506194103 30 175 1.6 8.0 0.00 0.00 0.00 66 1006.5
20260506193558 30 28 4.8 8.0 0.00 0.00 0.00 65 1006.6
20260506193058 29 92 0.0 8.0 0.00 0.00 0.00 67 1006.5
20260506192557 28 173 3.2 9.7 0.00 0.00 0.00 68 1006.6
20260506192057 29 95 3.2 9.7 0.00 0.00 0.00 67 1006.8
20260506191557 29 94 1.6 8.0 0.00 0.00 0.00 66 1006.8
20260506191056 28 324 3.2 9.7 0.00 0.00 0.00 69 1006.7
20260506190557 28 83 4.8 9.7 0.00 0.00 0.00 68 1006.8
20260506190057 28 76 3.2 8.0 0.00 0.00 0.00 69 1006.9
20260506185556 28 151 1.6 9.7 0.00 0.00 0.00 71 1006.9
20260506185053 27 59 3.2 9.7 0.00 0.00 0.00 72 1006.9
20260506184556 27 22 1.6 8.0 0.00 0.00 0.00 73 1007.0
20260506184052 28 73 3.2 8.0 0.00 0.00 0.00 71 1007.1
20260506183552 28 221 0.0 9.7 0.00 0.00 0.00 72 1007.2
20260506183051 28 98 0.0 8.0 0.00 0.00 0.00 73 1007.2
20260506182549 27 53 3.2 8.0 0.00 0.00 0.00 75 1007.5
20260506182048 26 74 3.2 9.7 0.00 0.00 0.00 76 1007.6
20260506181547 26 51 3.2 9.7 0.00 0.00 0.00 76 1007.7
20260506181046 26 355 3.2 12.9 0.00 0.00 0.00 76 1007.7
20260506180546 26 35 3.2 12.9 0.00 0.00 0.00 77 1007.6
20260506180047 26 360 3.2 9.7 0.00 0.00 0.00 77 1007.6
20260506175547 26 39 3.2 6.4 0.00 0.00 0.00 77 1007.7
20260506175046 26 53 1.6 12.9 0.00 0.00 0.00 77 1007.7
20260506174548 26 24 4.8 12.9 0.00 0.00 0.00 77 1007.8
20260506174045 26 40 4.8 9.7 0.00 0.00 0.00 77 1007.8
20260506173547 26 67 3.2 9.7 0.00 0.00 0.00 77 1007.9
20260506173056 26 36 4.8 14.5 0.00 0.00 0.00 76 1007.9
20260506172545 26 52 3.2 11.3 0.00 0.00 0.00 76 1007.9
20260506172046 26 74 4.8 12.9 0.00 0.00 0.00 75 1008.0
20260506171551 26 328 3.2 14.5 0.00 0.00 0.00 76 1008.0
20260506171046 26 42 6.4 14.5 0.00 0.00 0.00 76 1008.0
20260506170542 26 60 3.2 12.9 0.00 0.00 0.00 77 1008.0
20260506170042 26 80 4.8 12.9 0.00 0.00 0.00 77 1007.9
20260506165543 26 78 4.8 11.3 0.00 0.00 0.00 78 1008.0
20260506165040 26 95 1.6 9.7 0.00 0.00 0.00 79 1008.1
20260506164552 26 96 4.8 8.0 0.00 0.00 0.00 78 1008.0
20260506164038 26 58 3.2 8.0 0.00 0.00 0.00 80 1007.9
20260506163537 25 344 3.2 8.0 0.00 0.00 0.00 79 1008.0
20260506163038 25 19 3.2 8.0 0.00 0.00 0.00 80 1008.0
20260506162535 25 70 3.2 9.7 0.00 0.00 0.00 81 1008.0
20260506162034 25 336 3.2 9.7 0.00 0.00 0.00 81 1008.1
20260506161534 25 19 3.2 8.0 0.00 0.00 0.00 82 1008.1
20260506161032 25 333 1.6 9.7 0.00 0.00 0.00 83 1008.0
20260506160531 25 342 4.8 9.7 0.00 0.00 0.00 83 1008.0
20260506160030 25 30 1.6 8.0 0.00 0.00 0.00 83 1008.0
20260506155528 24 46 4.8 6.4 0.00 0.00 0.00 83 1007.9
20260506155027 24 12 1.6 4.8 0.00 0.00 0.00 84 1007.8
20260506154525 24 50 1.6 8.0 0.00 0.00 0.00 84 1007.7
20260506154024 24 66 3.2 8.0 0.00 0.00 0.00 84 1007.5
20260506153524 24 355 0.0 4.8 0.00 0.00 0.00 85 1007.6
20260506153022 24 355 0.0 4.8 0.00 0.00 0.00 85 1007.5
20260506152522 24 355 1.6 4.8 0.00 0.00 0.00 85 1007.5
20260506152022 24 61 1.6 4.8 0.00 0.00 0.00 85 1007.3
20260506151521 23 68 0.0 4.8 0.00 0.00 0.00 85 1007.2
20260506151019 23 88 1.6 4.8 0.00 0.00 0.00 85 1007.1
20260506150521 23 42 1.6 4.8 0.00 0.00 0.00 85 1007.2
20260506150018 23 42 0.0 4.8 0.00 0.00 0.00 85 1007.2
20260506145519 23 82 1.6 4.8 0.00 0.00 0.00 85 1007.2
20260506145018 23 30 0.0 4.8 0.00 0.00 0.00 85 1007.1
20260506144517 23 32 1.6 4.8 0.00 0.00 0.00 85 1007.0
20260506144015 23 86 1.6 4.8 0.00 0.00 0.00 85 1006.9
20260506143515 23 86 0.0 6.4 0.00 0.00 0.00 85 1006.8
20260506143015 23 86 1.6 6.4 0.00 0.00 0.00 85 1006.7
20260506142514 23 86 0.0 4.8 0.00 0.00 0.00 85 1006.6
20260506142013 23 69 1.6 4.8 0.00 0.00 0.00 85 1006.7
20260506141512 23 71 0.0 4.8 0.00 0.00 0.00 85 1006.5
20260506141014 23 115 0.0 4.8 0.00 0.00 0.00 85 1006.5
20260506140512 23 76 1.6 4.8 0.00 0.00 0.00 85 1006.4
20260506140011 23 190 0.0 8.0 0.00 0.00 0.00 85 1006.4
20260506135510 23 65 0.0 6.4 0.00 0.00 0.00 85 1006.2
20260506135008 23 61 0.0 4.8 0.00 0.00 0.00 85 1006.1
20260506134508 23 167 0.0 6.4 0.00 0.00 0.00 85 1006.0
20260506134007 23 126 0.0 8.0 0.00 0.00 0.00 85 1005.9
20260506133507 23 69 0.0 8.0 0.00 0.00 0.00 85 1005.8
20260506133008 23 65 1.6 9.7 0.00 0.00 0.00 85 1005.9
20260506132506 23 100 1.6 9.7 0.00 0.00 0.00 85 1005.8
20260506132010 23 98 1.6 9.7 0.00 0.00 0.00 85 1005.7
20260506131505 23 71 0.0 6.4 0.00 0.00 0.00 85 1005.8
20260506131005 23 98 0.0 6.4 0.00 0.00 0.00 85 1005.7
20260506130505 23 79 1.6 6.4 0.00 0.00 0.00 85 1005.7
20260506130012 23 65 0.0 6.4 0.00 0.00 0.00 85 1005.7
20260506125504 23 63 0.0 6.4 0.00 0.00 0.00 85 1005.7
20260506125004 23 82 0.0 6.4 0.00 0.00 0.00 85 1005.7
20260506124503 23 57 0.0 3.2 0.00 0.00 0.00 85 1005.8
20260506124002 23 57 0.0 4.8 0.00 0.00 0.00 85 1005.8
20260506123503 23 34 0.0 4.8 0.00 0.00 0.00 85 1005.9
20260506123002 23 152 0.0 3.2 0.00 0.00 0.00 85 1005.8
20260506122502 23 152 0.0 4.8 0.00 0.00 0.00 85 1005.8
20260506122059 23 77 0.0 4.8 0.00 0.00 0.00 85 1005.7
20260506121613 23 77 0.0 3.2 0.00 0.00 0.00 85 1005.6
20260506121059 23 77 0.0 3.2 0.00 0.00 0.00 85 1005.6
20260506120558 23 77 0.0 3.2 0.00 0.00 0.00 85 1005.5
20260506120119 23 77 0.0 4.8 0.00 0.00 0.00 85 1005.6
20260506115557 23 77 0.0 4.8 0.00 0.00 0.00 85 1005.5
20260506115057 23 134 0.0 6.4 0.00 0.00 0.00 85 1005.6
20260506114557 23 69 1.6 6.4 0.00 0.00 0.00 84 1005.5
20260506114055 23 60 0.0 3.2 0.00 0.00 0.00 84 1005.5
20260506113555 23 60 0.0 3.2 0.00 0.00 0.00 84 1005.5
20260506113103 23 190 0.0 3.2 0.00 0.00 0.00 84 1005.5
20260506112555 23 190 0.0 3.2 0.00 0.00 0.00 84 1005.5
20260506112054 23 190 0.0 3.2 0.00 0.00 0.00 84 1005.5
20260506111555 23 190 0.0 3.2 0.00 0.00 0.00 84 1005.5
20260506111054 23 190 0.0 0.0 0.00 0.00 0.00 84 1005.5
20260506110556 23 190 0.0 1.6 0.00 0.00 0.00 84 1005.5
20260506110055 23 190 0.0 1.6 0.00 0.00 0.00 84 1005.5
20260506105554 23 190 0.0 0.0 0.00 0.00 0.00 84 1005.5
20260506105054 23 190 0.0 0.0 0.00 0.00 0.00 84 1005.3
20260506104554 23 190 0.0 3.2 0.00 0.00 0.00 84 1005.3
20260506104052 23 190 0.0 4.8 0.00 0.00 0.00 83 1005.2
20260506103552 23 190 0.0 3.2 0.00 0.00 0.00 83 1005.3
20260506103054 23 190 0.0 4.8 0.00 0.00 0.00 83 1005.3
20260506102552 23 190 1.6 4.8 0.00 0.00 0.00 83 1005.3
20260506102054 23 190 0.0 4.8 0.00 0.00 0.00 83 1005.3
20260506101552 23 190 0.0 4.8 0.00 0.00 0.00 83 1005.2
20260506101050 23 190 1.6 8.0 0.00 0.00 0.00 83 1005.3
20260506100550 23 155 3.2 8.0 0.00 0.00 0.00 83 1005.2
20260506100050 23 173 1.6 9.7 0.00 0.00 0.00 83 1005.1
20260506095550 23 176 3.2 14.5 0.00 0.00 0.00 83 1005.1
20260506095051 23 150 1.6 14.5 0.00 0.00 0.00 82 1005.3
20260506094550 23 137 3.2 8.0 0.00 0.00 0.00 82 1005.2
20260506094048 23 154 1.6 11.3 0.00 0.00 0.00 82 1005.2
20260506093548 23 108 4.8 11.3 0.00 0.00 0.00 82 1005.1
20260506093051 23 162 1.6 8.0 0.00 0.00 0.00 82 1005.1
20260506092548 23 122 0.0 12.9 0.00 0.00 0.00 82 1005.1
20260506092048 23 168 3.2 12.9 0.00 0.00 0.00 82 1005.0
20260506091548 23 154 4.8 12.9 0.00 0.00 0.00 82 1005.0
20260506091047 23 165 3.2 11.3 0.00 0.00 0.00 82 1005.0
20260506090546 23 185 6.4 12.9 0.00 0.00 0.00 82 1005.1
20260506090047 23 176 3.2 12.9 0.00 0.00 0.00 82 1005.2
20260506085546 24 164 4.8 14.5 0.00 0.00 0.00 82 1005.1
20260506085046 24 169 4.8 11.3 0.00 0.00 0.00 82 1005.1
20260506084545 24 187 4.8 14.5 0.00 0.00 0.00 81 1005.2
20260506084044 24 174 6.4 14.5 0.00 0.00 0.00 81 1005.2
20260506083544 24 179 6.4 12.9 0.00 0.00 0.00 81 1005.2
20260506083046 24 140 3.2 12.9 0.00 0.00 0.00 81 1005.3
20260506082545 24 184 6.4 12.9 0.00 0.00 0.00 81 1005.3
20260506082043 24 141 3.2 11.3 0.00 0.00 0.00 81 1005.3
20260506081548 24 155 4.8 14.5 0.00 0.00 0.00 81 1005.4
20260506081042 24 167 3.2 14.5 0.00 0.00 0.00 81 1005.4
20260506080545 24 172 1.6 14.5 0.00 0.00 0.00 81 1005.3
20260506073039 24 133 0.0 11.3 0.00 0.00 0.00 81 1005.6
20260506072538 24 161 1.6 11.3 0.00 0.00 0.00 81 1005.7
20260506072038 24 161 3.2 12.9 0.00 0.00 0.00 81 1005.9
20260506071548 24 190 3.2 12.9 0.00 0.00 0.00 81 1005.7
20260506071038 24 157 3.2 16.1 0.00 0.00 0.00 81 1005.7
20260506070538 24 172 6.4 16.1 0.00 0.00 0.00 81 1005.7
20260506062034 24 252 3.2 12.9 0.00 0.00 0.00 82 1005.7
20260506061536 24 151 3.2 8.0 0.00 0.00 0.00 82 1005.8
20260506061034 24 165 1.6 11.3 0.00 0.00 0.00 82 1005.9
20260506060534 24 166 4.8 11.3 0.00 0.00 0.00 82 1005.9
20260506051028 24 138 1.6 9.7 0.00 0.00 0.00 81 1005.7
20260506050527 24 179 3.2 14.5 0.00 0.00 0.00 81 1005.7
20260506045026 24 117 4.8 11.3 0.00 0.00 0.00 81 1005.8
20260506044535 24 136 4.8 9.7 0.00 0.00 0.00 81 1005.8
20260506044024 25 108 1.6 6.4 0.00 0.00 0.00 81 1005.8
20260506043527 25 108 3.2 11.3 0.00 0.00 0.00 81 1005.8
20260506043027 25 113 3.2 11.3 0.00 0.00 0.00 81 1005.7
20260506042524 25 144 3.2 12.9 0.00 0.00 0.00 81 1005.8
20260506042023 25 46 1.6 14.5 0.00 0.00 0.00 81 1005.7
20260506041525 25 126 3.2 14.5 0.00 0.00 0.00 80 1005.6
20260506041023 25 182 1.6 8.0 0.00 0.00 0.00 80 1005.5
20260506040523 25 135 3.2 14.5 0.00 0.00 0.00 80 1005.4
20260506040023 25 152 4.8 14.5 0.00 0.00 0.00 80 1005.4
20260506035523 25 157 1.6 9.7 0.00 0.00 0.00 80 1005.3
20260506035023 25 151 1.6 11.3 0.00 0.00 0.00 79 1005.1
20260506034523 25 128 3.2 16.1 0.00 0.00 0.00 79 1005.1
20260506034022 25 132 4.8 17.7 0.00 0.00 0.00 79 1005.0
20260506033522 25 170 6.4 17.7 0.00 0.00 0.00 79 1005.0
20260506033022 25 145 3.2 16.1 0.00 0.00 0.00 78 1005.0
20260506032522 25 155 3.2 16.1 0.00 0.00 0.00 78 1004.9
20260506032022 25 153 4.8 12.9 0.00 0.00 0.00 78 1004.9
20260506031524 25 169 1.6 6.4 0.00 0.00 0.00 78 1005.1
20260506031022 25 38 1.6 12.9 0.00 0.00 0.00 78 1004.9
20260506030521 25 157 4.8 17.7 0.00 0.00 0.00 77 1004.8
20260506030022 26 123 4.8 12.9 0.00 0.00 0.00 77 1004.7
20260506025525 26 94 1.6 19.3 0.00 0.00 0.00 77 1004.7
20260506025021 26 165 6.4 19.3 0.00 0.00 0.00 76 1004.5
20260506024530 26 135 3.2 9.7 0.00 0.00 0.00 76 1004.4
20260506024020 26 135 3.2 8.0 0.00 0.00 0.00 76 1004.4
20260506023520 26 97 0.0 8.0 0.00 0.00 0.00 76 1004.5
20260506023020 26 157 3.2 8.0 0.00 0.00 0.00 75 1004.4
20260506022520 26 132 1.6 8.0 0.00 0.00 0.00 75 1004.4
20260506022020 26 143 1.6 8.0 0.00 0.00 0.00 75 1004.3
20260506021520 26 105 0.0 16.1 0.00 0.00 0.00 75 1004.3